User: anonymous   Login
Location: El Carrer d�Abaix
(41.5797°N, 2.1791°E)
Time: 11:35:19
(UTC+00:00)
Language:

Cosmos 2228 - Orbit

View from above orbital plane
View from above orbital plane
View from above satellite
View from above satellite

Ground track
Ground track

The orbit data is extracted from the following two-line orbital elements,

1 22286U 92094A   21166.85763469  .00000212  00000-0  20201-4 0  9992
2 22286  82.5210  76.9208 0020046 317.5150  42.4515 14.88285311518495
Epoch (UTC): 15 June 2021 20:34:59
Eccentricity: 0.0020046
inclination: 82.5210°
perigee height: 589 km
apogee height: 617 km
right ascension of ascending node: 76.9208°
argument of perigee: 317.5150°
revolutions per day: 14.88285311
mean anomaly at epoch: 42.4515°
orbit number at epoch: 51849

The dashed part of the orbit path shows where the satellite is in the earth's shadow,  

DLR